• In Deutschland
  • Länderverzeichnis
  • Für 7 Tage
  • Wassertemperatur
  • Satellitenkarten
  • Wetterkarte
  • Widgets
  • user-avatar
    Anmelden

    Stündliche Wetter Erfurt

    Heute, 16 Juli, Montag

    Zeit Temperatur Niederschläge Wind Luftdruck Luftfeuchtigkeit
    00:00 +16°C° 0,1 mm 1 m/S 744 mmHg 82%
    01:00 +16°C° 0,1 mm 1 m/S 744 mmHg 84%
    02:00 +15°C° 0,1 mm 1 m/S 744 mmHg 85%
    03:00 +15°C° 0,1 mm 1 m/S 744 mmHg 86%
    04:00 +15°C° 0,1 mm 1 m/S 743 mmHg 87%
    05:00 +16°C° 0 mm 1 m/S 743 mmHg 84%
    06:00 +18°C° 0 mm 1 m/S 743 mmHg 81%
    07:00 +19°C° 0 mm 1 m/S 744 mmHg 78%
    08:00 +21°C° 0,1 mm 1 m/S 743 mmHg 73%
    09:00 +23°C° 0,1 mm 2 m/S 743 mmHg 68%
    10:00 +24°C° 0,1 mm 2 m/S 743 mmHg 63%
    11:00 +25°C° 0,3 mm 2 m/S 743 mmHg 61%
    12:00 +26°C° 0,3 mm 2 m/S 743 mmHg 59%
    13:00 +26°C° 0,3 mm 2 m/S 742 mmHg 58%
    14:00 +26°C° 0,3 mm 2 m/S 742 mmHg 58%
    15:00 +26°C° 0,3 mm 2 m/S 742 mmHg 58%
    16:00 +26°C° 0,3 mm 2 m/S 742 mmHg 59%
    17:00 +25°C° 0,2 mm 2 m/S 741 mmHg 63%
    18:00 +25°C° 0,2 mm 1 m/S 741 mmHg 68%
    19:00 +24°C° 0,2 mm 1 m/S 741 mmHg 72%
    20:00 +22°C° 0 mm 1 m/S 741 mmHg 75%
    21:00 +21°C° 0 mm 1 m/S 742 mmHg 78%
    22:00 +19°C° 0 mm 1 m/S 742 mmHg 81%
    23:00 +19°C° 0 mm 1 m/S 742 mmHg 82%

    Morgen, 17 Juli, Dienstag

    Zeit Temperatur Niederschläge Wind Luftdruck Luftfeuchtigkeit
    00:00 +18°C° 0 mm 1 m/S 742 mmHg 82%
    01:00 +18°C° 0 mm 1 m/S 742 mmHg 83%
    02:00 +16°C° 0 mm 1 m/S 742 mmHg 84%
    03:00 +16°C° 0 mm 1 m/S 742 mmHg 85%
    04:00 +16°C° 0 mm 1 m/S 742 mmHg 86%
    05:00 +18°C° 0 mm 1 m/S 742 mmHg 83%
    06:00 +20°C° 0 mm 1 m/S 742 mmHg 79%
    07:00 +21°C° 0 mm 1 m/S 742 mmHg 76%
    08:00 +23°C° 0 mm 2 m/S 743 mmHg 68%
    09:00 +25°C° 0 mm 2 m/S 743 mmHg 61%
    10:00 +26°C° 0 mm 2 m/S 743 mmHg 53%
    11:00 +27°C° 0 mm 2 m/S 743 mmHg 51%
    12:00 +27°C° 0 mm 3 m/S 742 mmHg 49%
    13:00 +28°C° 0 mm 3 m/S 742 mmHg 46%
    14:00 +28°C° 0 mm 3 m/S 742 mmHg 47%
    15:00 +28°C° 0 mm 3 m/S 742 mmHg 47%
    16:00 +28°C° 0 mm 3 m/S 742 mmHg 47%
    17:00 +27°C° 0 mm 3 m/S 742 mmHg 53%
    18:00 +26°C° 0 mm 2 m/S 742 mmHg 59%
    19:00 +25°C° 0 mm 2 m/S 742 mmHg 65%
    20:00 +24°C° 0 mm 2 m/S 742 mmHg 67%
    21:00 +21°C° 0 mm 2 m/S 742 mmHg 70%
    22:00 +21°C° 0 mm 1 m/S 743 mmHg 72%
    23:00 +20°C° 0 mm 1 m/S 743 mmHg 73%

    übermorgen, 18 Juli, Mittwoch

    Zeit Temperatur Niederschläge Wind Luftdruck Luftfeuchtigkeit
    00:00 +20°C° 0 mm 1 m/S 743 mmHg 74%
    01:00 +19°C° 0 mm 1 m/S 743 mmHg 75%
    02:00 +18°C° 0 mm 2 m/S 743 mmHg 77%
    03:00 +17°C° 0 mm 2 m/S 743 mmHg 79%
    04:00 +17°C° 0 mm 2 m/S 743 mmHg 81%
    05:00 +18°C° 0 mm 2 m/S 743 mmHg 80%
    06:00 +19°C° 0 mm 3 m/S 744 mmHg 79%
    07:00 +20°C° 0 mm 3 m/S 744 mmHg 79%
    08:00 +21°C° 0,1 mm 3 m/S 744 mmHg 74%
    09:00 +22°C° 0,1 mm 3 m/S 744 mmHg 69%
    10:00 +25°C° 0,1 mm 4 m/S 744 mmHg 65%
    11:00 +26°C° 0,1 mm 4 m/S 744 mmHg 60%
    12:00 +26°C° 0,1 mm 4 m/S 744 mmHg 56%
    13:00 +27°C° 0,1 mm 4 m/S 744 mmHg 52%
    14:00 +27°C° 0 mm 4 m/S 744 mmHg 51%
    15:00 +27°C° 0 mm 4 m/S 744 mmHg 50%
    16:00 +27°C° 0 mm 4 m/S 744 mmHg 50%
    17:00 +26°C° 0 mm 3 m/S 744 mmHg 55%
    18:00 +25°C° 0 mm 3 m/S 744 mmHg 60%
    19:00 +24°C° 0 mm 2 m/S 744 mmHg 66%
    20:00 +21°C° 0 mm 2 m/S 745 mmHg 70%
    21:00 +19°C° 0 mm 2 m/S 745 mmHg 75%
    22:00 +18°C° 0 mm 1 m/S 745 mmHg 80%
    23:00 +18°C° 0 mm 1 m/S 745 mmHg 82%

    19 Juli, Donnerstag

    Zeit Temperatur Niederschläge Wind Luftdruck Luftfeuchtigkeit
    00:00 +16°C° 0 mm 1 m/S 746 mmHg 84%
    01:00 +15°C° 0 mm 1 m/S 746 mmHg 87%
    02:00 +15°C° 0 mm 1 m/S 746 mmHg 88%
    03:00 +15°C° 0 mm 1 m/S 746 mmHg 89%
    04:00 +14°C° 0 mm 1 m/S 746 mmHg 90%
    05:00 +15°C° 0 mm 1 m/S 746 mmHg 85%
    06:00 +16°C° 0 mm 0 m/S 746 mmHg 79%
    07:00 +17°C° 0 mm 0 m/S 746 mmHg 74%
    08:00 +21°C° 0 mm 1 m/S 746 mmHg 66%
    09:00 +23°C° 0 mm 1 m/S 746 mmHg 59%
    10:00 +24°C° 0 mm 1 m/S 746 mmHg 51%
    11:00 +25°C° 0 mm 1 m/S 746 mmHg 49%
    12:00 +26°C° 0 mm 1 m/S 746 mmHg 46%
    13:00 +27°C° 0 mm 1 m/S 745 mmHg 43%
    14:00 +27°C° 0 mm 1 m/S 745 mmHg 43%
    15:00 +27°C° 0 mm 1 m/S 745 mmHg 43%
    16:00 +27°C° 0 mm 1 m/S 745 mmHg 42%
    17:00 +26°C° 0 mm 1 m/S 744 mmHg 48%
    18:00 +25°C° 0 mm 1 m/S 744 mmHg 53%
    19:00 +24°C° 0 mm 1 m/S 744 mmHg 58%
    20:00 +22°C° 0 mm 1 m/S 744 mmHg 60%
    21:00 +21°C° 0 mm 1 m/S 744 mmHg 62%
    22:00 +19°C° 0 mm 1 m/S 744 mmHg 64%
    23:00 +18°C° 0 mm 1 m/S 744 mmHg 65%

    20 Juli, Freitag

    Zeit Temperatur Niederschläge Wind Luftdruck Luftfeuchtigkeit
    00:00 +18°C° 0 mm 1 m/S 744 mmHg 66%
    01:00 +16°C° 0 mm 1 m/S 744 mmHg 67%
    02:00 +16°C° 0 mm 1 m/S 744 mmHg 67%
    03:00 +16°C° 0 mm 1 m/S 744 mmHg 67%
    04:00 +16°C° 0 mm 1 m/S 743 mmHg 68%
    05:00 +18°C° 0 mm 1 m/S 743 mmHg 66%
    06:00 +19°C° 0 mm 1 m/S 743 mmHg 64%
    07:00 +20°C° 0 mm 1 m/S 743 mmHg 62%
    08:00 +22°C° 0,1 mm 1 m/S 743 mmHg 61%
    09:00 +23°C° 0,1 mm 1 m/S 743 mmHg 60%
    10:00 +24°C° 0,1 mm 2 m/S 743 mmHg 59%
    11:00 +24°C° 0,7 mm 2 m/S 743 mmHg 66%
    12:00 +23°C° 0,7 mm 2 m/S 742 mmHg 72%
    13:00 +22°C° 0,7 mm 1 m/S 742 mmHg 79%
    14:00 +21°C° 0,4 mm 2 m/S 741 mmHg 80%
    15:00 +21°C° 0,4 mm 2 m/S 741 mmHg 82%
    16:00 +21°C° 0,4 mm 2 m/S 741 mmHg 83%
    17:00 +21°C° 0,1 mm 2 m/S 740 mmHg 83%
    18:00 +21°C° 0,1 mm 2 m/S 740 mmHg 83%
    19:00 +21°C° 0,1 mm 2 m/S 740 mmHg 83%
    20:00 +21°C° 0,6 mm 1 m/S 740 mmHg 86%
    21:00 +20°C° 0,6 mm 1 m/S 740 mmHg 89%
    22:00 +19°C° 0,6 mm 1 m/S 740 mmHg 92%
    23:00 +18°C° 0 mm 1 m/S 739 mmHg 92%

    21 Juli, Samstag

    Zeit Temperatur Niederschläge Wind Luftdruck Luftfeuchtigkeit
    00:00 +18°C° 0 mm 1 m/S 739 mmHg 93%
    01:00 +18°C° 0 mm 1 m/S 739 mmHg 93%
    02:00 +18°C° 0 mm 1 m/S 739 mmHg 93%
    03:00 +16°C° 0 mm 1 m/S 739 mmHg 93%
    04:00 +16°C° 0 mm 1 m/S 738 mmHg 94%
    05:00 +18°C° 0 mm 1 m/S 738 mmHg 91%
    06:00 +19°C° 0 mm 1 m/S 738 mmHg 89%
    07:00 +21°C° 0 mm 1 m/S 738 mmHg 86%
    08:00 +22°C° 0,3 mm 1 m/S 738 mmHg 83%
    09:00 +23°C° 0,3 mm 1 m/S 738 mmHg 80%
    10:00 +24°C° 0,3 mm 1 m/S 738 mmHg 76%
    11:00 +24°C° 1,2 mm 1 m/S 738 mmHg 76%
    12:00 +25°C° 1,2 mm 1 m/S 738 mmHg 76%
    13:00 +25°C° 1,2 mm 1 m/S 738 mmHg 76%
    14:00 +25°C° 1,4 mm 2 m/S 738 mmHg 76%
    15:00 +25°C° 1,4 mm 2 m/S 738 mmHg 76%
    16:00 +25°C° 1,4 mm 2 m/S 738 mmHg 76%
    17:00 +24°C° 0,9 mm 2 m/S 738 mmHg 79%
    18:00 +23°C° 0,9 mm 2 m/S 738 mmHg 83%
    19:00 +23°C° 0,9 mm 2 m/S 738 mmHg 87%
    20:00 +21°C° 0,6 mm 2 m/S 738 mmHg 89%
    21:00 +20°C° 0,6 mm 2 m/S 739 mmHg 92%
    22:00 +18°C° 0,6 mm 2 m/S 739 mmHg 94%
    23:00 +18°C° 0 mm 2 m/S 739 mmHg 95%
    Mehr zeigen